DW8219 Weather Reports


Display with metric or nautical units.
time (UTC)temp
F
wind
direction
speed
MPH
gust
MPH
rain 1hr
in
rain 24hr
in
rain mn
in
humidity
%
barometer
mb
20260507192405 65 336 2.0 14.0 0.00 0.20 0.16 38 1006.4
20260507191904 64 333 2.0 8.0 0.00 0.20 0.16 38 1006.3
20260507191404 65 326 2.0 10.0 0.00 0.20 0.16 43 1006.5
20260507190904 64 292 4.0 12.0 0.00 0.20 0.16 40 1006.6
20260507190404 63 31 2.0 12.0 0.00 0.20 0.16 37 1006.7
20260507185904 64 330 2.0 16.0 0.00 0.20 0.16 42 1006.6
20260507185404 64 264 5.0 9.0 0.00 0.20 0.16 35 1006.7
20260507184904 64 354 5.0 14.0 0.00 0.21 0.16 41 1006.7
20260507183904 63 296 6.0 13.0 0.00 0.21 0.16 38 1006.8
20260507182904 64 265 4.0 17.0 0.00 0.21 0.16 37 1007.0
20260507182404 65 340 2.0 15.0 0.00 0.21 0.16 44 1007.0
20260507181404 62 53 0.0 5.0 0.00 0.21 0.16 40 1007.1
20260507180904 63 6 2.0 9.0 0.00 0.21 0.16 39 1007.3
20260507180404 62 296 5.0 15.0 0.00 0.21 0.16 37 1007.3
20260507175905 63 301 2.0 9.0 0.00 0.21 0.16 40 1007.4
20260507175404 63 324 3.0 12.0 0.00 0.21 0.16 36 1007.5
20260507174904 63 322 6.0 18.0 0.00 0.21 0.16 38 1007.5
20260507174404 63 295 5.0 12.0 0.00 0.21 0.16 43 1007.4
20260507173904 62 71 2.0 13.0 0.00 0.21 0.16 36 1007.6
20260507172904 62 291 4.0 10.0 0.00 0.22 0.16 42 1007.8
20260507171905 63 303 2.0 10.0 0.00 0.23 0.16 42 1008.0
20260507171405 62 325 6.0 15.0 0.00 0.23 0.16 41 1007.9
20260507170905 62 316 7.0 15.0 0.00 0.23 0.16 39 1008.0
20260507170405 61 301 5.0 15.0 0.00 0.23 0.16 38 1008.1
20260507165904 62 325 6.0 12.0 0.00 0.23 0.16 38 1008.2
20260507165405 62 303 7.0 18.0 0.00 0.23 0.16 42 1008.1
20260507164905 62 257 1.0 12.0 0.00 0.24 0.16 42 1008.1
20260507164404 60 240 0.0 8.0 0.00 0.24 0.16 37 1008.3
20260507163904 60 310 4.0 13.0 0.00 0.24 0.16 39 1008.3
20260507163405 61 293 6.0 15.0 0.00 0.24 0.16 39 1008.4
20260507162904 61 294 7.0 12.0 0.00 0.25 0.16 37 1008.6
20260507162404 61 293 4.0 13.0 0.00 0.25 0.16 39 1008.6
20260507161905 61 312 5.0 12.0 0.00 0.25 0.16 42 1008.7
20260507161405 60 302 4.0 12.0 0.00 0.25 0.16 41 1008.7
20260507160906 60 351 2.0 7.0 0.00 0.25 0.16 38 1008.8
20260507160405 60 334 2.0 10.0 0.00 0.25 0.16 41 1008.9
20260507155406 61 354 1.0 3.0 0.00 0.25 0.16 39 1008.8
20260507154905 60 309 1.0 12.0 0.00 0.25 0.16 41 1008.8
20260507154405 60 338 4.0 10.0 0.00 0.25 0.16 42 1008.9
20260507152905 60 334 3.0 10.0 0.00 0.25 0.16 40 1009.1
20260507152405 59 286 2.0 10.0 0.00 0.25 0.16 42 1009.2
20260507151905 59 313 3.0 10.0 0.00 0.25 0.16 40 1009.3
20260507151405 59 314 3.0 10.0 0.00 0.25 0.16 45 1009.3
20260507150905 58 294 7.0 15.0 0.00 0.25 0.16 41 1009.3
20260507150405 58 303 8.0 17.0 0.00 0.25 0.16 40 1009.4
20260507145906 57 0 2.0 14.0 0.00 0.25 0.16 44 1009.4
20260507145405 57 323 3.0 14.0 0.00 0.25 0.16 43 1009.3
20260507144905 57 305 9.0 16.0 0.00 0.25 0.16 41 1009.5
20260507143905 57 320 4.0 14.0 0.00 0.25 0.16 44 1009.3
20260507143404 56 324 7.0 14.0 0.00 0.25 0.16 43 1009.3
20260507142904 56 322 7.0 12.0 0.00 0.25 0.16 47 1009.3
20260507142403 56 317 3.0 10.0 0.00 0.25 0.16 48 1009.3
20260507141404 56 318 3.0 12.0 0.00 0.25 0.16 49 1009.3
20260507140904 55 298 6.0 15.0 0.00 0.25 0.16 48 1009.4
20260507140404 55 292 7.0 14.0 0.00 0.25 0.16 50 1009.3
20260507135903 55 286 2.0 12.0 0.00 0.25 0.16 53 1009.4
20260507134905 54 320 5.0 12.0 0.00 0.25 0.16 56 1009.3
20260507133904 53 329 3.0 12.0 0.00 0.25 0.16 63 1009.4
20260507133404 53 314 0.0 7.0 0.00 0.25 0.16 64 1009.5
20260507132905 53 334 2.0 10.0 0.00 0.25 0.16 65 1009.5
20260507132403 53 324 6.0 12.0 0.00 0.25 0.16 65 1009.6
20260507131906 53 336 0.0 1.0 0.00 0.25 0.16 65 1009.5
20260507131404 53 304 2.0 8.0 0.00 0.25 0.16 71 1009.5
20260507130904 52 317 3.0 9.0 0.00 0.25 0.16 73 1009.3
20260507125903 52 318 0.0 6.0 0.00 0.25 0.16 76 1009.4
20260507125404 51 286 1.0 10.0 0.00 0.25 0.16 75 1009.3
20260507124904 51 323 2.0 10.0 0.00 0.25 0.16 76 1009.4
20260507124404 51 322 4.0 9.0 0.00 0.25 0.16 77 1009.5
20260507123904 51 324 6.0 12.0 0.00 0.25 0.16 78 1009.7
20260507123404 51 327 1.0 7.0 0.00 0.25 0.16 80 1009.5
20260507122904 51 310 4.0 9.0 0.00 0.25 0.16 81 1009.5
20260507122404 50 302 3.0 12.0 0.00 0.25 0.16 82 1009.5
20260507121905 50 320 7.0 12.0 0.00 0.25 0.16 83 1009.5
20260507121405 49 309 2.0 8.0 0.00 0.25 0.16 83 1009.4
20260507120404 49 314 6.0 12.0 0.00 0.25 0.16 84 1009.3
20260507115905 49 321 6.0 13.0 0.00 0.25 0.16 84 1009.3
20260507114905 49 323 1.0 12.0 0.00 0.25 0.16 85 1009.3
20260507114404 49 278 2.0 10.0 0.00 0.25 0.16 85 1009.2
20260507113904 49 295 5.0 10.0 0.00 0.25 0.16 85 1009.2
20260507112905 48 306 4.0 9.0 0.00 0.25 0.16 86 1009.0
20260507112404 48 312 1.0 10.0 0.00 0.25 0.16 86 1009.0
20260507111905 48 298 3.0 8.0 0.00 0.25 0.16 86 1009.0
20260507110904 48 273 1.0 5.0 0.00 0.25 0.16 87 1008.7
20260507110406 48 311 0.0 0.0 0.00 0.25 0.16 87 1008.7
20260507105905 48 285 0.0 0.0 0.00 0.25 0.16 87 1008.7
20260507105404 48 285 0.0 0.0 0.00 0.25 0.16 87 1008.7
20260507104904 48 299 0.0 0.0 0.00 0.25 0.16 87 1008.7
20260507104405 48 313 0.0 8.0 0.00 0.25 0.16 87 1008.8
20260507103904 48 286 1.0 8.0 0.00 0.25 0.16 87 1008.5
20260507102904 48 298 5.0 9.0 0.00 0.25 0.16 88 1008.4
20260507102405 48 279 3.0 9.0 0.00 0.25 0.16 88 1008.4
20260507101906 48 314 2.0 7.0 0.00 0.25 0.16 88 1008.2
20260507101405 48 326 2.0 8.0 0.00 0.25 0.16 89 1008.2
20260507100905 48 313 4.0 9.0 0.00 0.25 0.16 88 1008.1
20260507095905 48 301 4.0 12.0 0.01 0.25 0.16 89 1007.9
20260507095405 48 282 1.0 8.0 0.01 0.25 0.16 90 1007.8
20260507094905 48 306 2.0 8.0 0.01 0.25 0.16 90 1007.8
20260507093904 48 297 2.0 7.0 0.02 0.25 0.16 91 1007.9
20260507093404 48 300 5.0 10.0 0.02 0.25 0.16 91 1007.9
20260507092905 48 288 3.0 9.0 0.02 0.25 0.16 91 1007.9
20260507092405 48 320 1.0 9.0 0.03 0.25 0.16 91 1007.9
20260507091904 48 311 1.0 8.0 0.03 0.25 0.16 91 1007.9
20260507091404 48 278 2.0 6.0 0.03 0.25 0.16 91 1008.0
20260507090905 49 298 1.0 7.0 0.04 0.25 0.16 91 1008.1
20260507085905 49 304 0.0 3.0 0.03 0.24 0.15 91 1007.8
20260507084405 49 282 1.0 7.0 0.05 0.24 0.15 91 1007.8
20260507083905 49 297 1.0 3.0 0.05 0.23 0.14 91 1007.9
20260507082904 49 252 1.0 9.0 0.08 0.23 0.14 91 1008.0
20260507082404 49 294 0.0 3.0 0.08 0.22 0.13 91 1007.9
20260507081404 49 312 0.0 5.0 0.08 0.22 0.13 90 1007.9
20260507080904 49 289 0.0 5.0 0.07 0.21 0.12 90 1008.0
20260507080405 49 315 0.0 6.0 0.07 0.21 0.12 90 1008.1
20260507075904 49 315 1.0 8.0 0.08 0.21 0.12 90 1008.3
20260507075404 49 271 3.0 8.0 0.07 0.20 0.11 90 1008.0
20260507074405 49 305 3.0 12.0 0.06 0.19 0.10 90 1008.0
20260507073904 49 293 6.0 10.0 0.05 0.18 0.09 90 1007.9
20260507073405 49 283 4.0 10.0 0.03 0.15 0.06 90 1008.2
20260507072904 49 285 1.0 9.0 0.03 0.15 0.06 90 1007.7
20260507071904 49 286 3.0 12.0 0.02 0.14 0.05 89 1007.9
20260507071404 50 306 6.0 12.0 0.02 0.14 0.05 89 1008.0
20260507070904 50 299 4.0 10.0 0.03 0.14 0.05 88 1007.7
20260507070404 50 293 5.0 12.0 0.03 0.14 0.05 88 1007.7
20260507065904 50 302 5.0 12.0 0.02 0.13 0.04 88 1007.7
20260507065404 50 309 5.0 12.0 0.02 0.13 0.04 88 1007.8
20260507064905 50 291 2.0 9.0 0.03 0.13 0.04 87 1007.8
20260507064404 50 260 2.0 12.0 0.03 0.13 0.04 87 1007.9
20260507062904 51 289 0.0 0.0 0.03 0.12 0.03 87 1007.7
20260507062404 51 286 0.0 0.0 0.03 0.12 0.03 86 1007.5
20260507061904 51 315 2.0 10.0 0.03 0.12 0.03 86 1008.0
20260507060904 51 303 0.0 3.0 0.02 0.11 0.02 85 1006.9
20260507060405 51 317 0.0 8.0 0.02 0.11 0.02 85 1007.6
20260507055905 51 318 4.0 9.0 0.02 0.11 0.02 84 1007.6
20260507055404 52 308 1.0 7.0 0.02 0.11 0.02 84 1007.5
20260507054904 52 332 3.0 8.0 0.01 0.10 0.01 83 1007.9
20260507052905 53 314 5.0 9.0 0.00 0.09 0.00 79 1006.9
20260507052405 53 308 5.0 12.0 0.00 0.09 0.00 78 1006.9
20260507051905 53 295 4.0 12.0 0.00 0.09 0.00 77 1007.0
20260507051404 54 270 1.0 10.0 0.00 0.09 0.00 77 1007.0
20260507050904 54 299 5.0 10.0 0.00 0.09 0.00 77 1007.3
20260507045904 54 305 0.0 3.0 0.00 0.09 0.00 77 1007.4
20260507045406 54 318 4.0 8.0 0.00 0.09 0.00 77 1007.3
20260507044904 54 325 4.0 8.0 0.00 0.09 0.00 77 1007.3
20260507044405 54 305 2.0 9.0 0.00 0.09 0.00 76 1007.1
20260507043905 54 318 2.0 10.0 0.00 0.09 0.00 76 1007.3
20260507043404 54 298 5.0 10.0 0.00 0.09 0.00 77 1007.3
20260507042905 55 322 5.0 9.0 0.00 0.09 0.00 77 1007.3
20260507042404 55 341 3.0 8.0 0.00 0.09 0.00 78 1007.4
20260507041904 55 303 1.0 3.0 0.00 0.09 0.00 78 1007.4
20260507041404 55 329 2.0 9.0 0.00 0.09 0.00 78 1007.3
20260507040905 55 312 3.0 10.0 0.00 0.09 0.00 78 1007.4
20260507040405 55 293 1.0 9.0 0.00 0.09 0.00 78 1007.4
20260507035905 55 280 3.0 9.0 0.00 0.09 0.09 78 1007.3
20260507035404 55 281 2.0 10.0 0.00 0.09 0.09 78 1007.4
20260507034905 55 324 5.0 10.0 0.00 0.09 0.09 78 1007.4
20260507034404 55 289 3.0 12.0 0.00 0.09 0.09 78 1007.4
20260507033904 55 303 2.0 8.0 0.00 0.09 0.09 78 1007.3
20260507033405 55 294 3.0 9.0 0.00 0.09 0.09 78 1007.1
20260507032904 55 298 2.0 8.0 0.00 0.09 0.09 78 1007.3
20260507032405 55 316 2.0 13.0 0.00 0.09 0.09 78 1007.2
20260507031905 55 304 4.0 9.0 0.00 0.09 0.09 78 1007.1
20260507031406 56 304 5.0 12.0 0.00 0.09 0.09 78 1006.9
20260507030905 56 302 1.0 12.0 0.00 0.09 0.09 78 1007.0
20260507030405 56 283 1.0 13.0 0.00 0.09 0.09 78 1007.0
20260507025906 56 313 4.0 12.0 0.01 0.09 0.09 79 1007.0
20260507024905 56 307 4.0 12.0 0.02 0.09 0.09 81 1007.1
20260507023905 56 304 6.0 13.0 0.03 0.09 0.09 82 1007.2
20260507023404 56 314 6.0 15.0 0.03 0.09 0.09 83 1007.2
20260507022904 57 317 6.0 12.0 0.03 0.09 0.09 85 1007.4
20260507022404 58 318 6.0 10.0 0.03 0.09 0.09 87 1007.4
20260507021904 58 310 3.0 9.0 0.03 0.09 0.09 87 1007.2
20260507021404 59 313 5.0 15.0 0.03 0.09 0.09 87 1007.5
20260507020904 59 283 3.0 9.0 0.03 0.09 0.09 87 1007.2
20260507020404 59 310 3.0 9.0 0.03 0.09 0.09 87 1006.8
20260507015904 59 321 6.0 12.0 0.02 0.08 0.08 86 1006.8
20260507014904 61 271 0.0 6.0 0.01 0.07 0.07 85 1006.8
20260507013405 64 256 6.0 12.0 0.00 0.06 0.06 83 1006.2
20260507012905 65 181 6.0 13.0 0.00 0.06 0.06 82 1006.0
20260507012404 65 221 5.0 13.0 0.00 0.06 0.06 82 1006.0
20260507011904 65 173 4.0 12.0 0.00 0.06 0.06 81 1006.0
20260507011405 65 207 3.0 9.0 0.00 0.06 0.06 81 1006.0
20260507010904 65 194 3.0 7.0 0.00 0.06 0.06 81 1005.9
20260507010404 65 203 2.0 7.0 0.00 0.06 0.06 81 1006.0
20260507005904 65 200 2.0 8.0 0.00 0.06 0.06 81 1006.0
20260507004904 65 219 3.0 7.0 0.00 0.06 0.06 82 1005.9
20260507004404 65 198 1.0 6.0 0.00 0.06 0.06 82 1005.9
20260507003904 65 210 3.0 7.0 0.00 0.06 0.06 82 1005.8
20260507003404 64 225 3.0 8.0 0.00 0.06 0.06 82 1005.8
20260507001404 64 207 5.0 10.0 0.00 0.06 0.06 82 1005.8
20260507000405 64 186 4.0 9.0 0.00 0.06 0.06 82 1005.7
20260506235905 64 201 4.0 10.0 0.00 0.06 0.06 83 1005.7
20260506235405 64 217 5.0 9.0 0.00 0.06 0.06 82 1005.7
20260506234904 64 220 4.0 10.0 0.00 0.06 0.06 82 1005.7
20260506234404 64 221 5.0 8.0 0.00 0.06 0.06 82 1005.6
20260506233404 64 236 5.0 12.0 0.00 0.06 0.06 82 1005.4
20260506232904 64 235 4.0 12.0 0.00 0.06 0.06 82 1005.5
20260506232405 65 195 5.0 12.0 0.00 0.06 0.06 82 1005.7
20260506231905 64 222 4.0 12.0 0.00 0.06 0.06 82 1005.7
20260506231405 64 219 7.0 12.0 0.00 0.06 0.06 82 1005.6
20260506230405 64 235 7.0 12.0 0.00 0.06 0.06 82 1005.6
20260506225905 64 223 6.0 12.0 0.00 0.06 0.06 83 1005.5
20260506225405 64 211 6.0 12.0 0.00 0.06 0.06 82 1005.5
20260506224905 64 216 6.0 12.0 0.00 0.06 0.06 83 1005.4
20260506224404 64 247 5.0 13.0 0.00 0.06 0.06 83 1005.4
20260506223904 64 231 5.0 13.0 0.00 0.06 0.06 83 1005.4
20260506222904 64 226 7.0 12.0 0.00 0.06 0.06 83 1005.4
20260506222405 64 217 7.0 16.0 0.00 0.06 0.06 83 1005.4
20260506221905 64 228 6.0 13.0 0.00 0.06 0.06 83 1005.3
20260506220904 64 198 6.0 15.0 0.00 0.06 0.06 83 1005.2
20260506220405 64 218 8.0 13.0 0.00 0.06 0.06 84 1005.2
20260506215904 64 223 8.0 15.0 0.00 0.06 0.06 84 1005.2
20260506214405 64 217 10.0 18.0 0.00 0.06 0.06 84 1005.1
20260506213905 64 214 7.0 14.0 0.00 0.06 0.06 84 1005.2
20260506212906 64 225 5.0 14.0 0.00 0.06 0.06 84 1004.9
20260506212404 63 243 8.0 16.0 0.00 0.06 0.06 84 1005.0
20260506211905 63 216 5.0 20.0 0.00 0.06 0.06 85 1004.9
20260506211405 63 231 9.0 20.0 0.00 0.06 0.06 85 1004.9
20260506210905 63 221 7.0 16.0 0.00 0.06 0.06 85 1004.9
20260506210405 63 205 5.0 12.0 0.01 0.06 0.06 86 1004.9
20260506205905 63 231 8.0 15.0 0.01 0.06 0.06 86 1004.8
20260506205404 63 202 5.0 9.0 0.01 0.06 0.06 86 1004.8
20260506204405 63 206 9.0 14.0 0.01 0.06 0.06 86 1004.7
20260506203905 63 196 6.0 13.0 0.01 0.06 0.06 87 1004.7
20260506203403 62 218 7.0 15.0 0.01 0.06 0.06 87 1004.7
20260506202904 62 205 10.0 16.0 0.01 0.06 0.06 87 1004.9
20260506202404 62 183 7.0 13.0 0.01 0.06 0.06 87 1005.0
20260506201904 62 201 6.0 15.0 0.01 0.06 0.06 88 1005.0
20260506201404 62 206 6.0 12.0 0.01 0.06 0.06 88 1005.0
20260506200904 62 209 4.0 15.0 0.01 0.06 0.06 88 1005.1
20260506200404 62 229 6.0 10.0 0.00 0.05 0.05 88 1005.1
20260506195904 62 208 7.0 12.0 0.00 0.05 0.05 88 1005.2
20260506195403 62 227 7.0 14.0 0.00 0.05 0.05 87 1005.4
20260506194904 62 225 7.0 13.0 0.01 0.05 0.05 86 1005.4
20260506194403 62 203 7.0 15.0 0.01 0.05 0.05 86 1005.4